NIEUW!!! Volg onze weer- en natuurfoto's op Instagram @ weerstationmaaseik.be

WS Maaseik 1 Meer informatie WS Maaseik 1


WS Maaseik 2 Meer informatie WS Maaseik 2


Regen radar Meer informatie rain snow radar


Bezoek onze andere website:

Vorige versie
weerstation Maaseik


Bezoek ook eens deze sites:

Weerstation Geleen



Het weer levert geen direct gevaar op.    Er zijn geen waarschuwingen afgegeven.

15 daagse weersverwachting Genk (BE)

  • Overzicht
  • Per uur
  • 15 dagen
  • Extra
  • Vergelijk
  • Kaarten
  • Dagkaart
  • Meer »
  • Info
  • Statistieken
  • Directe link
    Temp 6h Neerslag Wind  
 08:20     17:23    Daglengte: 9:03 Vandaag
01:00
 
3
07:00
4.2 mm
3
13:00
10°
17.5 mm
7
19:00
10°
15.3 mm
7
 08:19     17:24    Daglengte: 9:05 Morgen
01:00
7.9 mm
4
07:00
10°
22.9 mm
8
13:00
14.6 mm
7
19:00
22.2 mm
6
 08:17     17:26    Daglengte: 9:09 Zaterdag 30 Jan
01:00
15.6 mm
5
07:00
17.2 mm
4
13:00
33.5 mm
6
19:00
57.0 mm
6
warningclass
Locatie info
Region: Flandern
Latitude: 50.9636°N
Longitude: 5.4990°E
66 masl
Postcode: 3600
Temp/Neerslag /Baro Onweer/DauwpuntSneeuw
    Temp Baro 1h Neerslag Dauwpunt Wind UV BewolkingSneeuw  
 08:20     17:23    Daglengte: 9:03 Vandaag
01:00
Voelt als: 2.2°
1011.3 hPa
49%
4.6°
3
Windvlaag: 2.8 m/s
91%
02:00
Voelt als: 2.3°
1010.5 hPa
68%
4.6°
3
Windvlaag: 2.8 m/s
91%
03:00
Voelt als: 2.2°
1009.5 hPa
76%
4.4°
3
Windvlaag: 2.6 m/s
91%
04:00
Voelt als: 2.4°
1008.0 hPa 0.5 mm
82%
4.4°
3
Windvlaag: 2.3 m/s
91%
05:00
Voelt als: 2.5°
1006.6 hPa 0.7 mm
82%
4.5°
3
Windvlaag: 2.2 m/s
91%
06:00
Voelt als: 2.9°
1005.3 hPa 1.1 mm
82%
4.7°
3
Windvlaag: 2.3 m/s
91%
07:00
Voelt als: 3.2°
1004.1 hPa 2.0 mm
82%
4.9°
3
Windvlaag: 2.2 m/s
91%
08:00
Voelt als: 3.3°
1002.7 hPa 2.1 mm
82%
5.2°
3
Windvlaag: 2.3 m/s
91%
09:00
Voelt als: 3.4°
1001.6 hPa 3.0 mm
82%
5.4°
4
Windvlaag: 3 m/s
91%
10:00
Voelt als: 4.0°
1000.6 hPa 3.2 mm
82%
5.8°
4
Windvlaag: 3.7 m/s
91%
11:00
Voelt als: 5.2°
1000.0 hPa 3.0 mm
82%
7.4°
5
Windvlaag: 3.1 m/s
91%
12:00
Voelt als: 6.0°
999.8 hPa 3.1 mm
77%
8.2°
6
Windvlaag: 4.1 m/s
91%
13:00
10°
Voelt als: 6.8°
999.6 hPa 3.0 mm
80%
8.8°
7
Windvlaag: 3.5 m/s
91%
14:00
11°
999.5 hPa 2.2 mm
82%
9.4°
7
Windvlaag: 3.3 m/s
91%
15:00
11°
999.8 hPa 3.4 mm
75%
9.5°
8
Windvlaag: 2.9 m/s
91%
16:00
11°
1000.4 hPa 3.4 mm
73%
9.4°
8
Windvlaag: 1.9 m/s
91%
17:00
11°
1001.2 hPa 3.1 mm
74%
8.9°
8
Windvlaag: 1.4 m/s
90%
18:00
10°
1001.9 hPa 3.1 mm
77%
8.6°
7
Windvlaag: 1.2 m/s
91%
19:00
10°
1002.3 hPa
82%
8.5°
7
Windvlaag: 0.8 m/s
91%
20:00
10°
Voelt als: 7.0°
1002.5 hPa 2.3 mm
82%
8.1°
6
Windvlaag: 2.3 m/s
91%
21:00
10°
Voelt als: 6.8°
1002.4 hPa 2.3 mm
79%
8.1°
6
Windvlaag: 2.4 m/s
90%
22:00
Voelt als: 6.7°
1002.4 hPa
25%
7.9°
5
Windvlaag: 2.9 m/s
91%
23:00
Voelt als: 6.2°
1001.9 hPa
14%
7.7°
5
Windvlaag: 3 m/s
91%
 08:19     17:24    Daglengte: 9:05 Morgen
00:00
Voelt als: 6.2°
1001.1 hPa
16%
7.8°
5
Windvlaag: 3.2 m/s
90%
01:00
Voelt als: 6.4°
1000.0 hPa 3.3 mm
82%
7.9°
4
Windvlaag: 2.9 m/s
91%
02:00
Voelt als: 6.5°
998.6 hPa 3.0 mm
82%
8.1°
5
Windvlaag: 3.9 m/s
91%
03:00
Voelt als: 6.6°
997.2 hPa 3.6 mm
82%
8.0°
5
Windvlaag: 4.3 m/s
91%
04:00
10°
Voelt als: 6.8°
995.6 hPa 4.1 mm
82%
8.2°
6
Windvlaag: 4.4 m/s
91%
05:00
10°
Voelt als: 6.8°
994.6 hPa 5.0 mm
82%
8.4°
7
Windvlaag: 4.7 m/s
91%
06:00
10°
Voelt als: 6.7°
994.7 hPa 3.7 mm
82%
8.5°
8
Windvlaag: 3.4 m/s
91%
07:00
10°
Voelt als: 6.2°
995.2 hPa 3.5 mm
76%
7.9°
8
Windvlaag: 2.6 m/s
77%
08:00
Voelt als: 5.4°
995.8 hPa 4.7 mm
69%
7.3°
8
Windvlaag: 2.5 m/s
82%
09:00
Voelt als: 5.2°
996.3 hPa
16%
6.3°
7
Windvlaag: 2.5 m/s
88%
10:00
Voelt als: 5.3°
996.6 hPa
27%
6.1°
7
Windvlaag: 2.5 m/s
87%
11:00
Voelt als: 5.5°
996.4 hPa
82%
6.5°
7
Windvlaag: 2.8 m/s
75%
12:00
Voelt als: 5.7°
996.5 hPa 4.9 mm
82%
6.8°
7
Windvlaag: 2.6 m/s
54%
13:00
Voelt als: 6.2°
996.3 hPa 5.0 mm
82%
6.8°
7
Windvlaag: 2.8 m/s
56%
14:00
Voelt als: 6.1°
995.8 hPa 3.8 mm
82%
6.4°
7
Windvlaag: 2.7 m/s
65%
15:00
Voelt als: 5.3°
995.6 hPa 4.2 mm
82%
6.0°
7
Windvlaag: 2.8 m/s
69%
16:00
Voelt als: 5.2°
995.8 hPa 5.3 mm
82%
5.5°
6
Windvlaag: 2.8 m/s
70%
17:00
Voelt als: 4.7°
996.3 hPa 5.1 mm
82%
5.6°
6
Windvlaag: 2.5 m/s
76%
18:00
Voelt als: 4.4°
997.2 hPa 3.7 mm
82%
5.8°
6
Windvlaag: 2.3 m/s
55%
19:00
Voelt als: 3.8°
998.4 hPa
82%
5.6°
6
Windvlaag: 2.6 m/s
78%
20:00
Voelt als: 3.6°
999.1 hPa 5.0 mm
37%
5.7°
6
Windvlaag: 2.9 m/s
81%
21:00
Voelt als: 3.3°
999.8 hPa
61%
5.0°
6
Windvlaag: 2.4 m/s
65%
22:00
Voelt als: 2.3°
1001.2 hPa
87%
4.5°
6
Windvlaag: 2.1 m/s
99%
23:00
Voelt als: 2.0°
1001.8 hPa
92%
4.1°
6
Windvlaag: 2.1 m/s
100%
 08:17     17:26    Daglengte: 9:09 Zaterdag 30 Jan
00:00
Voelt als: 1.9°
1002.2 hPa 5.4 mm
100%
3.6°
5
Windvlaag: 2.3 m/s
99%
01:00
Voelt als: 1.6°
1002.2 hPa 5.2 mm
100%
3.0°
5
Windvlaag: 2.2 m/s
98%
02:00
Voelt als: 1.2°
1002.3 hPa
100%
1.4°
4
Windvlaag: 2 m/s
99%
03:00
Voelt als: 0.8°
1002.0 hPa
100%
0.4°
4
Windvlaag: 2 m/s
100%
04:00
Voelt als: -0.0°
1001.5 hPa
97%
-0.3°
3
Windvlaag: 1.6 m/s
100%
05:00
Voelt als: -0.8°
1000.9 hPa 5.4 mm
100%
-0.8°
3
Windvlaag: 1.3 m/s
100%
06:00
Voelt als: -1.5°
1000.1 hPa 5.8 mm
100%
-1.1°
3
Windvlaag: 1.5 m/s
100%
07:00
Voelt als: -2.5°
999.6 hPa 6.0 mm
100%
-1.4°
4
Windvlaag: 2.3 m/s
100%
08:00
Voelt als: -4.1°
999.5 hPa 5.6 mm
100%
-2.5°
4
Windvlaag: 0.6 m/s
99% warningclass
09:00
Voelt als: -4.4°
999.0 hPa 5.5 mm
100%
-2.3°
5
Windvlaag: 0.8 m/s
99% warningclass
10:00
Voelt als: -4.6°
998.2 hPa 5.6 mm
100%
-2.1°
5
Windvlaag: 1 m/s
100% warningclass
11:00
Voelt als: -4.5°
997.6 hPa 5.7 mm
100%
-1.8°
6
Windvlaag: 1.3 m/s
97% warningclass
12:00
Voelt als: -4.1°
996.9 hPa 5.6 mm
100%
-1.6°
6
Windvlaag: 1.3 m/s
98% warningclass
13:00
Voelt als: -4.0°
996.2 hPa 5.5 mm
100%
-1.7°
6
Windvlaag: 1.3 m/s
100%
14:00
Voelt als: -4.2°
995.9 hPa 9.1 mm
100%
-1.6°
6
Windvlaag: 10.4 m/s
100% warningclass
15:00
Voelt als: -4.2°
995.8 hPa 9.2 mm
100%
-1.7°
6
Windvlaag: 10.4 m/s
100%1 cm warningclass
16:00
Voelt als: -4.4°
995.9 hPa 9.3 mm
100%
-1.6°
6
Windvlaag: 10 m/s
100%1 cm warningclass
17:00
Voelt als: -4.6°
996.0 hPa 9.7 mm
100%
-1.6°
6
Windvlaag: 10.8 m/s
100%1 cm warningclass
18:00
Voelt als: -4.8°
996.3 hPa 9.8 mm
100%
-1.6°
6
Windvlaag: 10.7 m/s
100%1 cm warningclass
19:00
Voelt als: -5.0°
996.7 hPa 9.9 mm
100%
-1.6°
6
Windvlaag: 1.5 m/s
100%1 cm warningclass
20:00
Voelt als: -5.0°
997.2 hPa 10.2 mm
100%
-1.7°
6
Windvlaag: 11.2 m/s
100%2 cm warningclass
21:00
Voelt als: -4.9°
997.5 hPa 10.2 mm
100%
-1.7°
6
Windvlaag: 10.8 m/s
100%2 cm warningclass
22:00
Voelt als: -4.9°
997.8 hPa 9.9 mm
100%
-1.8°
6
Windvlaag: 10.5 m/s
99%2 cm warningclass
23:00
Voelt als: -4.7°
998.1 hPa 9.9 mm
100%
-1.8°
6
Windvlaag: 9.6 m/s
99%2 cm warningclass
 08:16     17:28    Daglengte: 9:12 Zondag 31 Jan
00:00
Voelt als: -4.7°
998.5 hPa 9.9 mm
100%
-2.0°
6
Windvlaag: 9.5 m/s
99%2 cm warningclass
Temp/Neerslag /Baro Onweer/DauwpuntSneeuw
    Temp Baro Neerslag Dauwpunt Wind BewolkingSneeuw  
 08:20     17:23    Daglengte: 9:03 Vandaag
01:00
Voelt als: 2.2°
1011.3 hPa   4.6°
3
91%
04:00
Voelt als: 2.4°
1008.0 hPa 0.5 mm 4.4°
3
91%
07:00
Voelt als: 3.2°
1004.1 hPa 3.8 mm 4.9°
3
91%
10:00
Voelt als: 4.0°
1000.6 hPa 8.3 mm 5.8°
4
91%
13:00
10°
Voelt als: 6.8°
999.6 hPa 9.2 mm 8.8°
7
91%
16:00
11°
1000.4 hPa 9.0 mm 9.4°
8
91%
19:00
10°
1002.3 hPa 6.3 mm 8.5°
7
91%
22:00
Voelt als: 6.7°
1002.4 hPa 4.6 mm 7.9°
5
91%
 08:19     17:24    Daglengte: 9:05 Morgen
01:00
Voelt als: 6.4°
1000.0 hPa 3.3 mm 7.9°
4
91%
04:00
10°
Voelt als: 6.8°
995.6 hPa 10.7 mm 8.2°
6
91%
07:00
10°
Voelt als: 6.2°
995.2 hPa 12.2 mm 7.9°
8
77%
10:00
Voelt als: 5.3°
996.6 hPa 4.7 mm 6.1°
7
87%
13:00
Voelt als: 6.2°
996.3 hPa 9.9 mm 6.8°
7
56%
16:00
Voelt als: 5.2°
995.8 hPa 13.4 mm 5.5°
6
70%
19:00
Voelt als: 3.8°
998.4 hPa 8.8 mm 5.6°
6
78%
22:00
Voelt als: 2.3°
1001.2 hPa 5.0 mm 4.5°
6
99%
 08:17     17:26    Daglengte: 9:09 Zaterdag 30 Jan
01:00
Voelt als: 1.6°
1002.2 hPa 10.6 mm 3.0°
5
98%
04:00
Voelt als: -0.0°
1001.5 hPa   -0.3°
3
100%
07:00
Voelt als: -2.5°
999.6 hPa 17.2 mm -1.4°
4
100%
10:00
Voelt als: -4.6°
998.2 hPa 16.7 mm -2.1°
5
100% warningclass
13:00
Voelt als: -4.0°
996.2 hPa 16.8 mm -1.7°
6
100%
16:00
Voelt als: -4.4°
995.9 hPa 27.6 mm -1.6°
6
100%1 cm warningclass
19:00
Voelt als: -5.0°
996.7 hPa 29.4 mm -1.6°
6
100%1 cm warningclass
22:00
Voelt als: -4.9°
997.8 hPa 30.4 mm -1.8°
6
99%2 cm warningclass
 08:16     17:28    Daglengte: 9:12 Zondag 31 Jan
01:00
Voelt als: -4.6°
998.9 hPa 29.9 mm -2.2°
5
100%2 cm warningclass
04:00
Voelt als: -4.4°
1000.3 hPa 38.7 mm -2.3°
5
91% warningclass
07:00
Voelt als: -4.5°
1001.0 hPa 38.7 mm -2.7°
5
91% warningclass
10:00
Voelt als: -2.5°
1001.1 hPa 38.8 mm -2.1°
4
78%
13:00
Voelt als: -0.3°
1001.1 hPa 38.8 mm -1.5°
3
65%
16:00
Voelt als: -0.9°
999.3 hPa 38.8 mm -1.1°
4
78%
19:00
Voelt als: -1.7°
997.7 hPa 38.8 mm -0.7°
4
92%
22:00
Voelt als: -1.1°
995.4 hPa 38.9 mm 0.4°
3
91%
 08:14     17:30    Daglengte: 9:16 Maandag 01 Feb
01:00
Voelt als: -0.7°
993.1 hPa   1.5°
3
99%
04:00
Voelt als: -0.7°
992.6 hPa 39.1 mm 1.5°
3
91%
07:00
Voelt als: -0.8°
992.3 hPa 39.2 mm 1.5°
3
92%
10:00
Voelt als: 0.0°
994.5 hPa 39.4 mm 1.9°
3
92%
13:00
Voelt als: 1.2°
996.6 hPa 39.4 mm 2.5°
4
92%
16:00
Voelt als: -0.2°
1000.2 hPa 39.4 mm 0.9°
4
91%
19:00
Voelt als: -1.6°
1003.8 hPa 39.4 mm -0.7°
3
90%
22:00
-0°
Voelt als: -3.1°
1006.9 hPa 39.4 mm -2.5°
2
76% warningclass
 08:13     17:31    Daglengte: 9:18 Dinsdag 02 Feb
01:00
-2°
Voelt als: -4.5°
1009.8 hPa 39.4 mm -4.4°
2
61% warningclass
04:00
-2°
Voelt als: -5.0°
1010.6 hPa 42.1 mm -4.1°
2
37% warningclass
07:00
-3°
Voelt als: -5.6°
1011.5 hPa 48.0 mm -3.9°
2
13% warningclass
10:00
Voelt als: -1.7°
1010.9 hPa 48.9 mm -1.0°
2
52% warningclass
13:00
Voelt als: 2.5°
1010.4 hPa 49.1 mm 1.9°
2
92%
16:00
Voelt als: 2.4°
1007.4 hPa 49.2 mm 2.9°
3
92%
19:00
Voelt als: 2.0°
1004.6 hPa 49.2 mm 3.8°
4
92%
22:00
Voelt als: 3.7°
1002.1 hPa 49.2 mm 5.9°
5
92%
 08:11     17:33    Daglengte: 9:22 Woensdag 03 Feb
01:00
Voelt als: 5.7°
999.5 hPa 49.2 mm 7.9°
6
92%
04:00
Voelt als: 5.5°
999.3 hPa 49.2 mm 7.5°
6
92%
07:00
Voelt als: 5.2°
999.2 hPa 49.7 mm 7.1°
5
92%
10:00
Voelt als: 5.0°
999.5 hPa 55.4 mm 7.2°
6
92%
13:00
Voelt als: 5.0°
1000.0 hPa 57.0 mm 7.2°
7
92%
16:00
Voelt als: 5.0°
1002.0 hPa 57.4 mm 7.2°
6
92%
19:00
Voelt als: 4.8°
1004.1 hPa 57.4 mm 7.0°
5
92%
22:00
Voelt als: 4.6°
1006.3 hPa   6.5°
4
92%
 08:10     17:35    Daglengte: 9:25 Donderdag 04 Feb
01:00
Voelt als: 4.8°
1008.4 hPa 114.9 mm 6.0°
2
92%
07:00
Voelt als: 0.6°
1010.2 hPa 114.9 mm 2.8°
3
92%
13:00
Voelt als: 3.6°
1008.7 hPa 115.0 mm 4.6°
3
92%
19:00
Voelt als: 3.0°
1004.2 hPa 115.1 mm 4.7°
4
92%
 08:08     17:37    Daglengte: 9:29 Vrijdag 05 Feb
01:00
Voelt als: 5.8°
1004.6 hPa 115.1 mm 7.5°
4
92%
07:00
Voelt als: 4.2°
1007.3 hPa 115.1 mm 6.3°
4
92%
13:00
Voelt als: 5.2°
1011.0 hPa 115.1 mm 5.2°
3
92%
19:00
Voelt als: 3.0°
1013.5 hPa 115.1 mm 3.2°
2
92%
 08:06     17:39    Daglengte: 9:33 Zaterdag 06 Feb
01:00
Voelt als: 0.2°
1016.1 hPa 115.2 mm 1.5°
3
92%
07:00
Voelt als: -1.9°
1017.0 hPa 115.2 mm 0.1°
4
86%
13:00
Voelt als: -5.6°
1029.2 hPa 115.2 mm -4.9°
8
1% warningclass
19:00
Voelt als: 1.9°
1019.3 hPa 0.5 mm -0.5°
1
72%
 08:05     17:40    Daglengte: 9:35 Zondag 07 Feb
01:00
Voelt als: 0.0°
1019.7 hPa 0.5 mm -0.9°
1
68%
07:00
Voelt als: -0.3°
1019.0 hPa 0.4 mm -1.6°
1
70%
13:00
Voelt als: 3.0°
1019.1 hPa 0.5 mm -0.5°
1
65%
19:00
1018.6 hPa 0.5 mm -0.5°
1
74%
 08:03     17:42    Daglengte: 9:39 Maandag 08 Feb
01:00
1018.2 hPa 0.6 mm -0.6°
0
75%
07:00
1016.7 hPa 0.2 mm -1.0°
1
78%
13:00
1016.0 hPa 0.3 mm -0.7°
1
77%
19:00
Voelt als: 2.5°
1014.9 hPa 0.5 mm -0.9°
1
76%
 08:01     17:44    Daglengte: 9:43 Dinsdag 09 Feb
01:00
Voelt als: 0.5°
1014.1 hPa 0.5 mm -1.2°
1
81%
07:00
Voelt als: 0.2°
1013.0 hPa 1.1 mm -0.9°
1
81%
13:00
Voelt als: 3.9°
1013.8 hPa 0.6 mm -0.3°
1
86%
19:00
Voelt als: 2.4°
1013.8 hPa 0.4 mm -0.3°
1
81%
 07:59     17:46    Daglengte: 9:47 Woensdag 10 Feb
01:00
Voelt als: 1.2°
1014.7 hPa 0.6 mm -1.2°
1
73%
07:00
Voelt als: 0.2°
1014.3 hPa 0.4 mm -1.5°
1
69%
13:00
Voelt als: 3.8°
1015.0 hPa 0.7 mm 0.2°
1
76%
19:00
Voelt als: 2.9°
1015.3 hPa 0.5 mm 0.1°
1
76%
 07:58     17:48    Daglengte: 9:50 Donderdag 11 Feb
01:00
Voelt als: 0.5°
1015.1 hPa 0.4 mm -0.0°
2
76%
07:00
Voelt als: 0.3°
1014.3 hPa 0.5 mm 0.0°
2
88%
13:00
Voelt als: 3.3°
1015.4 hPa 0.5 mm 0.3°
2
81%
19:00
Voelt als: 1.8°
1015.8 hPa 0.5 mm 0.1°
2
77%
  CAPE Lifted Index Hail Supercell Tornado SRH 3km CL BTM PRES CL TOP PRES Swiss DWD icon SMHI TS
 08:20     17:23    Daglengte: 9:03 Vandaag
01:00 1 J/kg 8.7 K 0 % 0 % 0 % 0 m²/s² 0 0 10.53 3
02:00 1 J/kg 9.2 K 0 % 0 % 0 % 0 m²/s² 0 0 10.79 3
03:00 1 J/kg 9.5 K 0 % 0 % 0 % 0 m²/s² 0 0 10.4 3
04:00 1 J/kg 8.1 K 0 % 0 % 0 % 0 m²/s² 0 0 8.46 61
05:00 1 J/kg 7.0 K 0 % 0 % 0 % 0 m²/s² 0 0 7.3 61
06:00 1 J/kg 6.7 K 0 % 0 % 0 % 0 m²/s² 0 0 6.94 61
07:00 1 J/kg 7.1 K 0 % 0 % 0 % 0 m²/s² 0 0 7.34 61
08:00 1 J/kg 6.8 K 0 % 0 % 0 % 0 m²/s² 0 0 7.04 61
09:00 1 J/kg 6.4 K 0 % 0 % 0 % 0 m²/s² 0 0 6.76 63
10:00 1 J/kg 5.3 K 0 % 0 % 0 % 0 m²/s² 0 0 5.45 61
11:00 1 J/kg 3.6 K 0 % 0 % 0 % 0 m²/s² 0 0 3.96 3
12:00 1 J/kg 1.9 K 0 % 0 % 0 % 0 m²/s² 0 0 2.71 3
13:00 1 J/kg 1.2 K 0 % 0 % 0 % 0 m²/s² 0 0 2.13 3
14:00 0 J/kg 0.8 K 0 % 0 % 0 % 0 m²/s² 0 0 2.36 80
15:00 0 J/kg 0.4 K 0 % 0 % 0 % 0 m²/s² 0 0 2.29 3
16:00 10 J/kg 1.1 K 0 % 0 % 0 % 0 m²/s² 0 0 2.75 3
17:00 24 J/kg 2.2 K 0 % 0 % 0 % 0 m²/s² 0 0 4.63 3
18:00 6 J/kg 2.6 K 0 % 0 % 0 % 0 m²/s² 0 0 5.03 3
19:00 6 J/kg 2.5 K 0 % 0 % 0 % 0 m²/s² 0 0 7.75 3
20:00 11 J/kg 3.4 K 0 % 0 % 0 % 0 m²/s² 0 0 9.79 61
21:00 31 J/kg 4.0 K 0 % 0 % 0 % 0 m²/s² 0 0 9.52 61
22:00 18 J/kg 4.6 K 0 % 0 % 0 % 0 m²/s² 0 0 8.17 3
23:00 10 J/kg 5.3 K 0 % 0 % 0 % 0 m²/s² 0 0 8.09 3
 08:19     17:24    Daglengte: 9:05 Morgen
00:00 10 J/kg 5.6 K 0 % 0 % 0 % 0 m²/s² 0 0 7.76 3
01:00 7 J/kg 5.1 K 0 % 0 % 0 % 0 m²/s² 0 0 6.03 61
02:00 0 J/kg 4.2 K 0 % 0 % 0 % 0 m²/s² 0 0 4.53 61
03:00 0 J/kg 3.1 K 0 % 0 % 0 % 0 m²/s² 0 0 3.37 61
04:00 0 J/kg 1.6 K 0 % 0 % 0 % 0 m²/s² 0 0 1.81 61
05:00 0 J/kg 1.3 K 0 % 0 % 0 % 0 m²/s² 0 0 1.63 61
06:00 36 J/kg 0.6 K 0 % 0 % 0 % 0 m²/s² 0 0 0.99 80
07:00 126 J/kg -0.3 K 0 % 0 % 0 % 0 m²/s² 0 0 2.52 3
08:00 126 J/kg -0.2 K 0 % 0 % 0 % 0 m²/s² 0 0 3.01 2
09:00 26 J/kg 0.8 K 0 % 0 % 0 % 0 m²/s² 0 0 3.68 3
10:00 20 J/kg 1.4 K 0 % 0 % 0 % 0 m²/s² 0 0 3.68 3
11:00 58 J/kg 0.6 K 0 % 0 % 0 % 0 m²/s² 0 0 2.94 3
12:00 196 J/kg -0.5 K 0 % 0 % 0 % 0 m²/s² 0 0 2.26 3
13:00 291 J/kg -0.7 K 0 % 0 % 0 % 0 m²/s² 0 0 2.21 80
14:00 221 J/kg -0.4 K 0 % 0 % 0 % 0 m²/s² 0 0 0.35 61
15:00 0 J/kg 1.2 K 0 % 0 % 0 % 0 m²/s² 0 0 1.8 61
16:00 7 J/kg 0.8 K 0 % 0 % 0 % 0 m²/s² 0 0 2.3 61
17:00 0 J/kg 1.7 K 0 % 0 % 0 % 0 m²/s² 0 0 6.86 61
18:00 0 J/kg 1.9 K 0 % 0 % 0 % 0 m²/s² 0 0 3.85 61
19:00 15 J/kg 3.5 K 0 % 0 % 0 % 0 m²/s² 0 0 4.49 61
20:00 4 J/kg 3.6 K 0 % 0 % 0 % 0 m²/s² 0 0 5.91 2
21:00 21 J/kg 6.1 K 0 % 0 % 0 % 0 m²/s² 0 0 8.77 2
22:00 8 J/kg 6.5 K 0 % 0 % 0 % 0 m²/s² 0 0 9.14 3
23:00 6 J/kg 8.0 K 0 % 0 % 0 % 0 m²/s² 0 0 11.21 3
 08:17     17:26    Daglengte: 9:09 Zaterdag 30 Jan
00:00 11 J/kg 9.3 K 0 % 0 % 0 % 0 m²/s² 0 0 12.27 61
01:00 20 J/kg 10.6 K 0 % 0 % 0 % 0 m²/s² 0 0 13.72 3
02:00 22 J/kg 11.8 K 0 % 0 % 0 % 0 m²/s² 0 0 15.37 3
03:00 15 J/kg 12.8 K 0 % 0 % 0 % 0 m²/s² 0 0 16.97 61
04:00 0 J/kg 13.7 K 0 % 0 % 0 % 0 m²/s² 0 0 18.71 61
05:00 0 J/kg 14.0 K 0 % 0 % 0 % 0 m²/s² 0 0 20.12 61
06:00 0 J/kg 14.6 K 0 % 0 % 0 % 0 m²/s² 0 0 20.18 3
07:00 1 J/kg 15.0 K 0 % 0 % 0 % 0 m²/s² 0 0 19.77 61
08:00 0 J/kg 14.9 K 0 % 0 % 0 % 0 m²/s² 0 0 18.59 61
09:00 0 J/kg 14.1 K 0 % 0 % 0 % 0 m²/s² 0 0 15.81 55
10:00 0 J/kg 13.1 K 0 % 0 % 0 % 0 m²/s² 0 0 13.49 55
11:00 0 J/kg 12.2 K 0 % 0 % 0 % 0 m²/s² 0 0 12.56 55
12:00 0 J/kg 11.3 K 0 % 0 % 0 % 0 m²/s² 0 0 11.66 71
13:00 0 J/kg 11.2 K 0 % 0 % 0 % 0 m²/s² 0 0 11.56 71
14:00 0 J/kg 10.8 K 0 % 0 % 0 % 0 m²/s² 0 0 11.16 71
15:00 0 J/kg 10.4 K 0 % 0 % 0 % 0 m²/s² 0 0 10.76 71
16:00 1 J/kg 10.4 K 0 % 0 % 0 % 0 m²/s² 0 0 10.73 71
17:00 2 J/kg 10.1 K 0 % 0 % 0 % 0 m²/s² 0 0 10.43 71
18:00 1 J/kg 10.1 K 0 % 0 % 0 % 0 m²/s² 0 0 10.46 73
19:00 0 J/kg 10.1 K 0 % 0 % 0 % 0 m²/s² 0 0 10.49 73
20:00 0 J/kg 10.4 K 0 % 0 % 0 % 0 m²/s² 0 0 10.79 73
21:00 0 J/kg 10.3 K 0 % 0 % 0 % 0 m²/s² 0 0 10.69 73
22:00 1 J/kg 10.1 K 0 % 0 % 0 % 0 m²/s² 0 0 10.49 77
23:00 0 J/kg 10.1 K 0 % 0 % 0 % 0 m²/s² 0 0 10.49 71
 08:16     17:28    Daglengte: 9:12 Zondag 31 Jan
00:00 0 J/kg 9.9 K 0 % 0 % 0 % 0 m²/s² 0 0 10.35 71
Temp Baro Wind Neerslag
  EWN Forecast EWN WRFDA DWD ICON FMI HIRLAM MET Norway GFS
 08:20     17:23    Daglengte: 9:03 Vandaag
01:00 5.0° 1011.3 hPa 3.5 m/s 0.0 mm 5.3° 1008.0 hPa 3.8 m/s 0.1 mm 5.0° 1011.0 hPa 2.0 m/s -1.8 mm 4.7° 1011.2 hPa 4.0 m/s 0.0 mm 5.6° 1011.8 hPa 3.5 m/s 4.7° 1010.7 hPa 2.5 m/s
04:00 4.9° 1008.0 hPa 2.9 m/s 0.5 mm 4.9° 1005.9 hPa 1.9 m/s 0.2 mm 5.3° 1007.9 hPa 1.9 m/s 1.0 mm 5.4° 1007.4 hPa 3.9 m/s 0.0 mm 4.9° 1008.4 hPa 3.0 m/s 4.9° 1007.6 hPa 1.9 m/s
07:00 5.4° 1004.1 hPa 2.8 m/s 3.8 mm 5.2° 1002.2 hPa 2.0 m/s 4.5 mm 5.6° 1004.0 hPa 2.1 m/s 3.7 mm 6.7° 1002.9 hPa 5.0 m/s 0.0 mm 5.4° 1004.5 hPa 2.6 m/s 5.6° 1004.0 hPa 2.1 m/s
10:00 6.7° 1000.6 hPa 3.8 m/s 8.3 mm 5.9° 998.6 hPa 2.2 m/s 22.5 mm 6.5° 1000.1 hPa 3.3 m/s 6.1 mm 9.7° 1000.0 hPa 6.5 m/s 0.0 mm 6.7° 1001.2 hPa 3.6 m/s 7.0° 1001.0 hPa 2.9 m/s
13:00 9.8° 999.6 hPa 6.7 m/s 9.2 mm 8.6° 997.7 hPa 5.2 m/s 36.6 mm 10.6° 1000.0 hPa 5.5 m/s 0.8 mm 11.6° 998.8 hPa 9.0 m/s 0.0 mm 9.9° 999.9 hPa 6.6 m/s 10.6° 1000.1 hPa 7.6 m/s
16:00 10.7° 1000.4 hPa 8.0 m/s 9.0 mm 9.9° 997.8 hPa 8.3 m/s 40.6 mm 11.1° 1000.6 hPa 5.9 m/s 0.3 mm 11.7° 999.6 hPa 8.6 m/s 0.0 mm 10.7° 1000.8 hPa 8.1 m/s 10.9° 1000.5 hPa 8.1 m/s
19:00 10.2° 1002.3 hPa 6.5 m/s 6.3 mm 9.4° 999.9 hPa 7.0 m/s 43.6 mm 10.0° 1003.2 hPa 4.7 m/s 0.1 mm 11.4° 1000.2 hPa 8.0 m/s 0.0 mm 10.3° 1002.6 hPa 6.4 m/s 9.9° 1003.1 hPa 5.2 m/s
22:00 9.3° 1002.4 hPa 5.1 m/s 4.6 mm 8.9° 1000.3 hPa 5.5 m/s 45.6 mm 9.0° 1003.3 hPa 3.8 m/s 0.3 mm 11.2° 999.6 hPa 5.3 m/s 0.0 mm 9.5° 1002.7 hPa 5.0 m/s 9.2° 1003.0 hPa 4.3 m/s
 08:19     17:24    Daglengte: 9:05 Morgen
01:00 8.9° 1000.0 hPa 4.5 m/s 3.3 mm 8.5° 999.4 hPa 4.3 m/s 46.3 mm 8.4° 1000.6 hPa 2.6 m/s 0.4 mm 10.6° 995.8 hPa 6.2 m/s 0.0 mm 9.1° 1000.3 hPa 4.6 m/s 8.4° 1001.8 hPa 3.8 m/s
04:00 9.6° 995.6 hPa 5.7 m/s 10.7 mm 8.4° 994.2 hPa 3.9 m/s 48.8 mm 9.4° 996.4 hPa 3.6 m/s 2.9 mm 10.7° 991.2 hPa 7.5 m/s 0.0 mm 9.9° 996.0 hPa 5.8 m/s 9.0° 996.8 hPa 5.3 m/s
07:00 9.6° 995.2 hPa 7.7 m/s 12.2 mm 9.5° 992.2 hPa 6.5 m/s 67.9 mm 9.6° 996.4 hPa 6.0 m/s 2.4 mm 10.5° 990.7 hPa 8.4 m/s 0.0 mm 9.3° 995.7 hPa 8.9 m/s 10.1° 994.6 hPa 7.9 m/s
10:00 8.7° 996.6 hPa 6.8 m/s 4.7 mm 8.7° 994.1 hPa 8.1 m/s 69.7 mm 8.6° 998.1 hPa 4.9 m/s 0.0 mm 9.9° 990.4 hPa 5.9 m/s 0.0 mm 8.6° 997.2 hPa 6.9 m/s 8.4° 996.8 hPa 7.8 m/s
13:00 9.5° 996.3 hPa 7.2 m/s 9.9 mm 9.5° 993.7 hPa 7.9 m/s 70.1 mm 9.5° 996.9 hPa 5.7 m/s 0.7 mm 9.5° 989.8 hPa 7.2 m/s 0.0 mm 9.6° 996.9 hPa 7.7 m/s 9.1° 996.9 hPa 6.8 m/s
16:00 8.4° 995.8 hPa 6.3 m/s 13.4 mm 8.4° 993.3 hPa 6.0 m/s 72.4 mm 8.0° 995.5 hPa 5.2 m/s 2.3 mm 9.8° 990.9 hPa 9.1 m/s 0.0 mm 8.3° 996.7 hPa 6.1 m/s 7.7° 995.4 hPa 6.5 m/s
19:00 7.3° 998.4 hPa 6.0 m/s 8.8 mm 6.6° 994.9 hPa 5.3 m/s 73.6 mm 7.5° 998.7 hPa 4.8 m/s 0.6 mm 8.1° 993.7 hPa 7.5 m/s 0.0 mm 7.2° 999.1 hPa 6.2 m/s 6.7° 997.3 hPa 5.6 m/s
22:00 6.1° 1001.2 hPa 5.9 m/s 5.0 mm 5.6° 997.1 hPa 7.7 m/s 74.6 mm 6.4° 1000.4 hPa 3.8 m/s 0.0 mm 5.9° 1001.7 hPa 6.1 m/s 6.2° 1000.3 hPa 6.2 m/s
 08:17     17:26    Daglengte: 9:09 Zaterdag 30 Jan
01:00 5.1° 1002.2 hPa 4.8 m/s 10.6 mm 5.0° 998.8 hPa 5.5 m/s 75.3 mm 7.3° 1000.2 hPa 4.8 m/s 0.4 mm 3.1° 1003.8 hPa 4.3 m/s 4.5° 1002.6 hPa 3.9 m/s
04:00 3.0° 1001.5 hPa 3.1 m/s 0.0 mm 2.5° 998.6 hPa 3.8 m/s 75.8 mm 6.3° 999.6 hPa 2.5 m/s 2.1 mm 0.2° 1004.2 hPa 3.1 m/s 3.2° 1002.7 hPa 2.0 m/s
07:00 1.4° 999.6 hPa 4.0 m/s 17.2 mm 0.5° 997.8 hPa 4.5 m/s 76.0 mm 3.9° 997.9 hPa 1.9 m/s 1.6 mm -0.2° 1002.2 hPa 4.3 m/s 1.0° 1001.8 hPa 4.3 m/s
10:00 0.4° 998.2 hPa 5.2 m/s 16.7 mm 0.7° 995.3 hPa 5.4 m/s 76.0 mm 1.5° 996.4 hPa 4.4 m/s 2.9 mm -0.2° 1000.2 hPa 5.3 m/s 0.7° 999.0 hPa 5.8 m/s
13:00 1.3° 996.2 hPa 6.4 m/s 16.8 mm 2.4° 993.0 hPa 6.7 m/s 76.2 mm 1.1° 995.1 hPa 4.7 m/s 1.8 mm 1.2° 997.8 hPa 6.7 m/s 1.9° 996.2 hPa 5.7 m/s
16:00 0.9° 995.9 hPa 6.2 m/s 27.6 mm 2.6° 991.3 hPa 6.1 m/s 79.3 mm -0.1° 994.9 hPa 4.7 m/s 1.8 mm 0.9° 997.7 hPa 6.6 m/s 3.3° 993.8 hPa 6.6 m/s
19:00 0.4° 996.7 hPa 6.3 m/s 29.4 mm 0.9° 992.2 hPa 6.5 m/s 82.7 mm -0.6° 996.7 hPa 5.5 m/s 2.7 mm 0.6° 997.6 hPa 6.5 m/s 2.3° 994.7 hPa 6.7 m/s
22:00 0.4° 997.8 hPa 5.9 m/s 30.4 mm 0.4° 993.8 hPa 5.8 m/s 86.5 mm -0.5° 997.9 hPa 5.4 m/s 2.3 mm 0.6° 998.5 hPa 6.2 m/s 2.7° 995.5 hPa 5.2 m/s
 08:16     17:28    Daglengte: 9:12 Zondag 31 Jan
01:00 0.4° 998.9 hPa 5.4 m/s 29.9 mm 0.5° 994.6 hPa 5.1 m/s 88.2 mm -0.6° 999.4 hPa 4.9 m/s 0.7 mm 0.7° 999.4 hPa 5.8 m/s 2.0° 996.2 hPa 5.0 m/s
04:00 0.5° 1000.3 hPa 5.1 m/s 38.7 mm 0.4° 1000.7 hPa 5.2 m/s 1.5° 996.5 hPa 4.0 m/s 38.7 mm
07:00 0.3° 1001.0 hPa 4.8 m/s 38.7 mm 0.2° 1001.3 hPa 4.9 m/s 1.4° 997.2 hPa 4.1 m/s 38.7 mm
10:00 1.6° 1001.1 hPa 4.1 m/s 38.8 mm 1.6° 1001.3 hPa 4.2 m/s 1.1° 998.3 hPa 3.3 m/s 38.8 mm
13:00 2.9° 1001.1 hPa 3.3 m/s 38.8 mm 3.0° 1001.4 hPa 3.5 m/s 1.9° 997.8 hPa 1.6 m/s 38.8 mm
16:00 2.5° 999.3 hPa 3.5 m/s 38.8 mm 2.5° 999.6 hPa 3.7 m/s 2.1° 996.0 hPa 1.3 m/s 38.8 mm
19:00 2.0° 997.7 hPa 3.7 m/s 38.8 mm 2.0° 997.9 hPa 3.9 m/s 1.7° 995.2 hPa 1.8 m/s 38.8 mm
22:00 2.2° 995.4 hPa 3.4 m/s 38.9 mm 2.2° 995.5 hPa 3.5 m/s 2.1° 994.1 hPa 1.9 m/s 38.9 mm
 08:14     17:30    Daglengte: 9:16 Maandag 01 Feb
01:00 2.4° 993.1 hPa 3.1 m/s 0.0 mm 2.4° 993.1 hPa 3.1 m/s
04:00 2.2° 992.6 hPa 2.9 m/s 39.1 mm 2.2° 992.5 hPa 2.9 m/s 2.0° 993.9 hPa 2.5 m/s 39.1 mm
07:00 2.0° 992.3 hPa 2.7 m/s 39.2 mm 2.1° 991.9 hPa 2.7 m/s 1.2° 996.8 hPa 2.5 m/s 39.2 mm
10:00 3.1° 994.5 hPa 3.4 m/s 39.4 mm 3.4° 994.0 hPa 3.5 m/s 0.3° 1000.1 hPa 1.8 m/s 39.4 mm
13:00 4.5° 996.6 hPa 4.1 m/s 39.4 mm 4.7° 996.1 hPa 4.3 m/s 2.4° 1002.4 hPa 1.5 m/s 39.4 mm
16:00 3.2° 1000.2 hPa 3.6 m/s 39.4 mm 3.2° 999.9 hPa 3.8 m/s 3.2° 1003.7 hPa 1.7 m/s 39.4 mm
19:00 1.7° 1003.8 hPa 3.1 m/s 39.4 mm 1.6° 1003.6 hPa 3.3 m/s 2.3° 1005.6 hPa 1.1 m/s 39.4 mm
22:00 -0.1° 1006.9 hPa 2.5 m/s 39.4 mm -0.4° 1007.0 hPa 2.5 m/s 3.4° 1005.5 hPa 2.2 m/s 39.4 mm
 08:13     17:31    Daglengte: 9:18 Dinsdag 02 Feb
01:00 -1.9° 1009.8 hPa 1.8 m/s 39.4 mm -2.5° 1010.4 hPa 1.7 m/s 4.4° 1003.4 hPa 3.3 m/s 39.4 mm
04:00 -2.4° 1010.6 hPa 1.8 m/s 42.1 mm -3.3° 1011.6 hPa 1.5 m/s 7.2° 998.6 hPa 4.8 m/s 42.1 mm
07:00 -2.8° 1011.5 hPa 1.9 m/s 48.0 mm -4.1° 1012.9 hPa 1.3 m/s 11.1° 995.5 hPa 8.5 m/s 48.0 mm
10:00 0.9° 1010.9 hPa 2.2 m/s 48.9 mm -0.0° 1012.1 hPa 1.6 m/s 11.6° 997.3 hPa 8.8 m/s 48.9 mm
13:00 4.6° 1010.4 hPa 2.5 m/s 49.1 mm 4.0° 1011.4 hPa 2.0 m/s 11.5° 999.1 hPa 7.9 m/s 49.1 mm
16:00 5.0° 1007.4 hPa 3.2 m/s 49.2 mm 4.4° 1008.1 hPa 2.9 m/s 11.9° 999.3 hPa 7.1 m/s 49.2 mm
19:00 5.1° 1004.6 hPa 4.0 m/s 49.2 mm 4.8° 1004.9 hPa 3.8 m/s 9.0° 1001.5 hPa 6.8 m/s 49.2 mm
22:00 7.0° 1002.1 hPa 5.3 m/s 49.2 mm 6.9° 1002.1 hPa 5.2 m/s 7.7° 1002.0 hPa 6.5 m/s 49.2 mm
 08:11     17:33    Daglengte: 9:22 Woensdag 03 Feb
01:00 8.9° 999.5 hPa 6.5 m/s 49.2 mm 9.1° 999.3 hPa 6.5 m/s 7.1° 1001.9 hPa 5.9 m/s 49.2 mm
04:00 8.6° 999.3 hPa 5.8 m/s 49.2 mm 8.7° 999.2 hPa 6.0 m/s 7.0° 1000.4 hPa 4.7 m/s 49.2 mm
07:00 8.1° 999.2 hPa 5.2 m/s 49.7 mm 8.3° 999.2 hPa 5.4 m/s 6.0° 998.7 hPa 2.5 m/s 49.7 mm
10:00 8.2° 999.5 hPa 5.9 m/s 55.4 mm 8.5° 999.7 hPa 6.3 m/s 5.3° 997.6 hPa 0.8 m/s 55.4 mm
13:00 8.4° 1000.0 hPa 6.8 m/s 57.0 mm 8.7° 1000.2 hPa 7.3 m/s 5.5° 998.3 hPa 1.6 m/s 57.0 mm
16:00 8.2° 1002.0 hPa 6.1 m/s 57.4 mm 8.4° 1002.2 hPa 6.4 m/s 5.8° 999.3 hPa 2.0 m/s 57.4 mm
19:00 7.9° 1004.1 hPa 5.4 m/s 57.4 mm 8.2° 1004.3 hPa 5.6 m/s 4.8° 1001.7 hPa 2.7 m/s 57.4 mm
22:00 7.1° 1006.3 hPa 3.7 m/s 57.5 mm 7.3° 1006.5 hPa 3.8 m/s 4.3° 1003.8 hPa 2.3 m/s 57.5 mm
 08:10     17:35    Daglengte: 9:25 Donderdag 04 Feb
01:00 6.3° 1008.4 hPa 2.1 m/s 57.5 mm 6.5° 1008.7 hPa 2.1 m/s 3.9° 1005.3 hPa 2.3 m/s 57.5 mm
07:00 3.1° 1010.2 hPa 2.6 m/s 57.5 mm 3.2° 1010.4 hPa 2.7 m/s 2.4° 1008.4 hPa 1.9 m/s 57.5 mm
13:00 6.0° 1008.7 hPa 3.1 m/s 57.5 mm 6.1° 1008.4 hPa 3.3 m/s 4.8° 1011.7 hPa 1.2 m/s 57.5 mm
19:00 6.0° 1004.2 hPa 4.1 m/s 57.5 mm 6.1° 1003.3 hPa 4.3 m/s 5.0° 1013.6 hPa 2.4 m/s 57.5 mm
 08:08     17:37    Daglengte: 9:29 Vrijdag 05 Feb
01:00 8.3° 1004.6 hPa 4.1 m/s 57.5 mm 8.9° 1003.6 hPa 4.2 m/s 1.6° 1015.6 hPa 3.2 m/s 57.5 mm
07:00 6.9° 1007.3 hPa 4.0 m/s 57.5 mm 7.5° 1006.4 hPa 4.0 m/s 0.4° 1016.6 hPa 3.8 m/s 57.5 mm
13:00 7.0° 1011.0 hPa 2.7 m/s 57.5 mm 7.4° 1010.3 hPa 2.5 m/s 3.1° 1019.2 hPa 4.4 m/s 57.5 mm
19:00 4.8° 1013.5 hPa 2.1 m/s 57.6 mm 5.1° 1012.7 hPa 1.8 m/s 1.1° 1021.9 hPa 5.0 m/s 57.6 mm
 08:06     17:39    Daglengte: 9:33 Zaterdag 06 Feb
01:00 3.1° 1016.1 hPa 2.9 m/s 57.6 mm 3.4° 1015.3 hPa 2.8 m/s -0.8° 1025.2 hPa 4.2 m/s 57.6 mm
07:00 1.9° 1017.0 hPa 3.9 m/s 57.6 mm 2.1° 1016.1 hPa 3.6 m/s -0.6° 1027.2 hPa 6.7 m/s 57.6 mm
13:00 0.4° 1029.2 hPa 7.5 m/s 57.6 mm 0.4° 1029.2 hPa 7.5 m/s 57.6 mm
19:00 2.6° 1019.3 hPa 1.1 m/s 0.5 mm
 08:05     17:40    Daglengte: 9:35 Zondag 07 Feb
01:00 1.5° 1019.7 hPa 1.4 m/s 0.5 mm
07:00 1.2° 1019.0 hPa 1.4 m/s 0.4 mm
13:00 4.1° 1019.1 hPa 1.5 m/s 0.5 mm
19:00 2.6° 1018.6 hPa 0.7 m/s 0.5 mm
 08:03     17:42    Daglengte: 9:39 Maandag 08 Feb
01:00 1.7° 1018.2 hPa 0.2 m/s 0.6 mm
07:00 1.4° 1016.7 hPa 0.6 m/s 0.2 mm
13:00 4.3° 1016.0 hPa 0.6 m/s 0.3 mm
19:00 2.5° 1014.9 hPa 0.7 m/s 0.5 mm
 08:01     17:44    Daglengte: 9:43 Dinsdag 09 Feb
01:00 1.9° 1014.1 hPa 1.4 m/s 0.5 mm
07:00 1.6° 1013.0 hPa 1.4 m/s 1.1 mm
13:00 4.7° 1013.8 hPa 1.3 m/s 0.6 mm
19:00 3.1° 1013.8 hPa 1.1 m/s 0.4 mm
 07:59     17:46    Daglengte: 9:47 Woensdag 10 Feb
01:00 1.8° 1014.7 hPa 1.0 m/s 0.6 mm
07:00 1.4° 1014.3 hPa 1.3 m/s 0.4 mm
13:00 4.8° 1015.0 hPa 1.4 m/s 0.7 mm
19:00 3.0° 1015.3 hPa 0.8 m/s 0.5 mm
 07:58     17:48    Daglengte: 9:50 Donderdag 11 Feb
01:00 2.6° 1015.1 hPa 2.0 m/s 0.4 mm
07:00 2.5° 1014.3 hPa 2.1 m/s 0.5 mm
13:00 5.3° 1015.4 hPa 2.4 m/s 0.5 mm
19:00 3.4° 1015.8 hPa 1.7 m/s 0.5 mm
FMI Hirlam - 7.5 km EWN WRFDA - 12 km DWD ICON - 7 km GFS - 25 km Basiskaart






























































Updatetijd (Europe/Brussels) Resolutie Lengte Stap
FMI Hirlam 18:15, 00:15, 06:15, 12:15 7.5 km 49h 1h
EWN WRFDA 21:30, 03:30, 09:30, 15:30 12 km 73h 1h
DWD ICON 22:45, 04:45, 10:45, 16:45 7 km 75h 1h
GFS 18:45, 00:45, 06:45, 12:45 25 km 237h 3h
30+ mm
25-30 mm
20-25 mm
15-20 mm
10-15 mm
6-10 mm
4-6 mm
2-4 mm
1-2 mm
0.5-1 mm
0.2-0.5 mm
0.1-0.2 mm
30+ mm
25-30 mm
20-25 mm
15-20 mm
10-15 mm
6-10 mm
4-6 mm
2-4 mm
1-2 mm
0.5-1 mm
0.2-0.5 mm
0.1-0.2 mm
Sneeuwval
Natte sneeuw
Hagel
Vorst
30+ mm
25-30 mm
20-25 mm
15-20 mm
10-15 mm
6-10 mm
4-6 mm
2-4 mm
1-2 mm
0.5-1 mm
0.2-0.5 mm
0.1-0.2 mm
Sneeuwval
Natte sneeuw
Hagel
Vorst
Onweer
50 mm
40 mm
30 mm
26 mm
22 mm
18 mm
14 mm
10 mm
9 mm
8 mm
7 mm
6 mm
5 mm
4.5 mm
4 mm
3.5 mm
3 mm
2.5 mm
2 mm
1.5 mm
1 mm
0.8 mm
0.6 mm
0.4 mm
0.2 mm
0.05 mm
35°
30°
25°
20°
15°
10°
-5°
-10°
-15°
-20°
-25°
-30°
-35°
33> m/s
29 m/s
25 m/s
21 m/s
17 m/s
14 m/s
11 m/s
8 m/s
5 m/s
3 m/s
0 m/s
2600 J/kg
2400 J/kg
2200 J/kg
2000 J/kg
1800 J/kg
1600 J/kg
1400 J/kg
1200 J/kg
1000 J/kg
800 J/kg
600 J/kg
400 J/kg
200 J/kg
70 dBZ
65 dBZ
60 dBZ
55 dBZ
50 dBZ
45 dBZ
40 dBZ
35 dBZ
30 dBZ
25 dBZ
20 dBZ
15 dBZ
10 dBZ
5 dBZ
-1 K
-2 K
-3 K
-4 K
-5 K
-6 K
-7 K
-8 K
-9 K
950 m²/s²
900 m²/s²
850 m²/s²
800 m²/s²
750 m²/s²
700 m²/s²
650 m²/s²
600 m²/s²
550 m²/s²
500 m²/s²
450 m²/s²
400 m²/s²
350 m²/s²
300 m²/s²
250 m²/s²
200 m²/s²
150 m²/s²
100 m²/s²
46 m/s
44 m/s
42 m/s
40 m/s
38 m/s
36 m/s
34 m/s
32 m/s
30 m/s
28 m/s
26 m/s
24 m/s
22 m/s
20 m/s
16 m/s
12 m/s
8 m/s
4 m/s
30 m/s
28 m/s
26 m/s
24 m/s
22 m/s
20 m/s
18 m/s
16 m/s
14 m/s
12 m/s
10 m/s
8 m/s
6 m/s
4 m/s
2 m/s
3.0
2.8
2.6
2.4
2.2
2.0
1.8
1.6
1.4
1.2
1.0
0.8
0.6
0.4
0.2
15
14
13
12
11
10
9
8
7
6
5
4
3
2
1
90%
80%
70%
60%
50%
40%
30%
20%
10%
42
40
38
36
34
32
30
28
26
24
22
20
18
16
14
12
90+ cm
80-90 cm
70-80 cm
60-70 cm
50-60 cm
40-50 cm
30-40 cm
20-30 cm
10-20 cm
1-10 cm
Sneeuwval
Natte sneeuw
Regen
>120 mm
115 mm
110 mm
105 mm
100 mm
95 mm
90 mm
85 mm
80 mm
75 mm
70 mm
65 mm
60 mm
55 mm
50 mm
45 mm
45 mm
40 mm
35 mm
30 mm
25 mm
20 mm
15 mm
10 mm
5 mm
0.1 mm
960 hPa
880 hPa
800 hPa
720 hPa
640 hPa
560 hPa
584 gpdm
568 gpdm
552 gpdm
536 gpdm
520 gpdm
504 gpdm
488 gpdm
Extreem zwaar Noodweer Kans op onweer
15% 15% 5% 50% 15%

Dag




Kaart






35°
30°
25°
20°
15°
10°
-5°
-10°
-15°
-20°
-25°
-30°
-35°
33> m/s
29 m/s
25 m/s
21 m/s
17 m/s
14 m/s
11 m/s
8 m/s
5 m/s
3 m/s
0 m/s
Extreem zwaar Noodweer Kans op onweer
15% 15% 5% 50% 15%
>120 mm
115 mm
110 mm
105 mm
100 mm
95 mm
90 mm
85 mm
80 mm
75 mm
70 mm
65 mm